Orbital Elements at Epoch 2459200.5 (2020-Dec-17.0) TDB
Reference: JPL 24 (heliocentric ecliptic J2000)
Element | Value | Uncertainty (1-sigma) | Units |
e | .1328589889659814 | 3.6269e-08 | |
a | 2.294434029530548 | 5.9774e-09 | au |
q | 1.989597844117976 | 8.2685e-08 | au |
i | 7.929996612421204 | 4.2821e-06 | deg |
node | 31.91725392288915 | 2.013e-05 | deg |
peri | 325.5137403600861 | 2.4729e-05 | deg |
M | 50.70024183996927 | 1.425e-05 | deg |
tp | 2459021.719840734670 (2020-Jun-21.21984073) | 5.01e-05 | TDB |
period | 1269.438862612685 3.48 | 4.9607e-06 1.358e-08 | d yr |
n | .2835898684077381 | 1.1082e-09 | deg/d |
Q | 2.599270214943119 | 6.7716e-09 | au |
|
| | Orbit Determination Parameters
Additional Information
|